User: anonymous   Login
Location: Unspecified
(0.0000°N, 0.0000°E)
Time: 04:35:38
(UTC+00:00)
Language:

ZHOU ENLAI - Orbit

View from above orbital plane
View from above orbital plane
View from above satellite
View from above satellite

Ground track
Ground track

The orbit data is extracted from the following two-line orbital elements,

1 43156U 18008B   19295.77738170  .00000355  00000-0  25172-4 0  9996
2 43156  97.4800   5.4816 0013329 246.5443 231.9322 15.10794400 96838
Epoch (UTC): 22 October 2019 18:39:25
Eccentricity: 0.0013329
inclination: 97.4800°
perigee height: 524 km
apogee height: 543 km
right ascension of ascending node: 5.4816°
argument of perigee: 246.5443°
revolutions per day: 15.10794400
mean anomaly at epoch: 231.9322°
orbit number at epoch: 9683

The dashed part of the orbit path shows where the satellite is in the earth's shadow,  

DLR